| time (UTC) | temp C | wind direction | speed KPH | gust KPH | rain 1hr cm | rain 24hr cm | rain mn cm | humidity % | barometer mb |
| 20260510091011 | 17 | 192 | 6.4 | 17.7 | 0.00 | 0.71 | 0.00 | 75 | 1013.6 |
| 20260510090012 | 17 | 213 | 8.0 | 14.5 | 0.00 | 0.71 | 0.00 | 76 | 1013.7 |
| 20260510085013 | 17 | 204 | 6.4 | 14.5 | 0.00 | 0.71 | 0.00 | 77 | 1013.6 |
| 20260510084012 | 16 | 234 | 4.8 | 14.5 | 0.00 | 0.71 | 0.00 | 77 | 1013.8 |
| 20260510083012 | 16 | 198 | 9.7 | 17.7 | 0.00 | 0.71 | 0.00 | 77 | 1013.8 |
| 20260510082013 | 16 | 215 | 8.0 | 16.1 | 0.00 | 0.71 | 0.00 | 79 | 1013.6 |
| 20260510080015 | 16 | 213 | 11.3 | 17.7 | 0.00 | 0.71 | 0.00 | 79 | 1013.7 |
| 20260510075011 | 16 | 234 | 8.0 | 17.7 | 0.00 | 0.71 | 0.00 | 79 | 1013.8 |
| 20260510073011 | 15 | 239 | 9.7 | 19.3 | 0.00 | 0.71 | 0.00 | 79 | 1013.6 |
| 20260510072014 | 15 | 240 | 8.0 | 16.1 | 0.00 | 0.71 | 0.00 | 80 | 1013.5 |
| 20260510071014 | 15 | 237 | 6.4 | 14.5 | 0.00 | 0.71 | 0.00 | 80 | 1013.4 |
| 20260510070012 | 15 | 244 | 4.8 | 11.3 | 0.00 | 0.71 | 0.00 | 80 | 1013.4 |
| 20260510065012 | 15 | 275 | 4.8 | 11.3 | 0.00 | 0.71 | 0.00 | 81 | 1013.2 |
| 20260510064013 | 14 | 267 | 4.8 | 14.5 | 0.00 | 0.71 | 0.00 | 81 | 1013.2 |
| 20260510063012 | 14 | 252 | 4.8 | 9.7 | 0.00 | 0.71 | 0.00 | 82 | 1013.4 |
| 20260510062011 | 14 | 274 | 3.2 | 11.3 | 0.00 | 0.71 | 0.00 | 82 | 1013.3 |
| 20260510061009 | 13 | 285 | 4.8 | 11.3 | 0.00 | 0.71 | 0.00 | 83 | 1013.2 |
| 20260510060013 | 13 | 279 | 4.8 | 11.3 | 0.00 | 0.71 | 0.00 | 84 | 1013.3 |
| 20260510055009 | 13 | 271 | 4.8 | 9.7 | 0.00 | 0.71 | 0.00 | 86 | 1013.3 |
| 20260510054012 | 13 | 301 | 4.8 | 6.4 | 0.00 | 0.71 | 0.00 | 87 | 1013.2 |
| 20260510053010 | 12 | 298 | 3.2 | 6.4 | 0.00 | 0.71 | 0.00 | 87 | 1013.2 |
| 20260510052011 | 12 | 298 | 3.2 | 6.4 | 0.00 | 0.71 | 0.00 | 87 | 1013.2 |
| 20260510051014 | 12 | 297 | 1.6 | 4.8 | 0.00 | 0.71 | 0.00 | 87 | 1013.1 |
| 20260510050012 | 12 | 298 | 3.2 | 6.4 | 0.00 | 0.71 | 0.00 | 87 | 1013.0 |
| 20260510044009 | 12 | 298 | 3.2 | 9.7 | 0.00 | 0.71 | 0.00 | 87 | 1013.0 |
| 20260510043011 | 13 | 298 | 3.2 | 6.4 | 0.00 | 0.71 | 0.00 | 87 | 1013.0 |
| 20260510042010 | 13 | 297 | 3.2 | 4.8 | 0.00 | 0.71 | 0.00 | 87 | 1013.0 |
| 20260510041012 | 13 | 298 | 3.2 | 6.4 | 0.00 | 0.71 | 0.00 | 87 | 1013.1 |
| 20260510040012 | 13 | 297 | 3.2 | 4.8 | 0.00 | 0.71 | 0.00 | 87 | 1013.1 |
| 20260510035011 | 13 | 297 | 4.8 | 6.4 | 0.00 | 0.71 | 0.00 | 87 | 1013.1 |
| 20260510034010 | 13 | 298 | 3.2 | 6.4 | 0.00 | 0.71 | 0.00 | 87 | 1013.1 |
| 20260510033010 | 13 | 298 | 4.8 | 9.7 | 0.00 | 0.71 | 0.00 | 88 | 1013.1 |
| 20260510032010 | 13 | 295 | 4.8 | 11.3 | 0.00 | 0.71 | 0.00 | 88 | 1013.1 |
| 20260510031010 | 13 | 313 | 4.8 | 6.4 | 0.00 | 0.71 | 0.00 | 88 | 1013.2 |
| 20260510030019 | 13 | 313 | 4.8 | 8.0 | 0.00 | 0.71 | 0.00 | 88 | 1013.2 |
| 20260510025010 | 13 | 313 | 3.2 | 6.4 | 0.00 | 0.71 | 0.00 | 88 | 1013.2 |
| 20260510023010 | 13 | 313 | 4.8 | 6.4 | 0.00 | 0.71 | 0.00 | 88 | 1013.2 |
| 20260510022011 | 13 | 313 | 4.8 | 8.0 | 0.00 | 0.71 | 0.00 | 88 | 1013.3 |
| 20260510021010 | 12 | 313 | 4.8 | 8.0 | 0.00 | 0.71 | 0.00 | 89 | 1013.4 |
| 20260510020012 | 12 | 311 | 4.8 | 11.3 | 0.00 | 0.71 | 0.00 | 88 | 1013.3 |
| 20260510015017 | 12 | 294 | 8.0 | 12.9 | 0.00 | 0.71 | 0.00 | 88 | 1013.5 |
| 20260510014009 | 12 | 298 | 6.4 | 12.9 | 0.00 | 0.71 | 0.00 | 88 | 1013.5 |
| 20260510011017 | 12 | 296 | 8.0 | 11.3 | 0.00 | 0.71 | 0.00 | 88 | 1013.6 |
| 20260510010023 | 11 | 334 | 4.8 | 9.7 | 0.00 | 0.71 | 0.00 | 88 | 1013.7 |
| 20260510005022 | 11 | 340 | 3.2 | 6.4 | 0.00 | 0.71 | 0.00 | 88 | 1013.7 |
| 20260510004021 | 11 | 339 | 4.8 | 8.0 | 0.00 | 0.71 | 0.00 | 88 | 1013.7 |
| 20260510003022 | 11 | 339 | 4.8 | 8.0 | 0.00 | 0.71 | 0.00 | 88 | 1013.6 |
| 20260510002022 | 11 | 339 | 6.4 | 9.7 | 0.00 | 0.71 | 0.00 | 89 | 1013.6 |
| 20260510001023 | 11 | 339 | 6.4 | 9.7 | 0.00 | 0.71 | 0.00 | 89 | 1013.7 |
| 20260510000032 | 11 | 339 | 4.8 | 8.0 | 0.00 | 0.71 | 0.00 | 89 | 1013.7 |
| 20260509235021 | 12 | 339 | 4.8 | 6.4 | 0.00 | 0.71 | 0.71 | 89 | 1013.8 |
| 20260509234022 | 12 | 337 | 4.8 | 9.7 | 0.00 | 0.71 | 0.71 | 89 | 1013.9 |
| 20260509233022 | 12 | 304 | 6.4 | 9.7 | 0.00 | 0.71 | 0.71 | 89 | 1013.9 |
| 20260509232021 | 12 | 323 | 6.4 | 12.9 | 0.00 | 0.71 | 0.71 | 89 | 1014.0 |
| 20260509231021 | 12 | 323 | 8.0 | 14.5 | 0.00 | 0.71 | 0.71 | 90 | 1014.1 |
| 20260509230022 | 12 | 329 | 9.7 | 12.9 | 0.00 | 0.71 | 0.71 | 90 | 1014.1 |
| 20260509225028 | 12 | 331 | 9.7 | 14.5 | 0.00 | 0.71 | 0.71 | 90 | 1014.2 |
| 20260509224022 | 13 | 329 | 6.4 | 12.9 | 0.00 | 0.71 | 0.71 | 90 | 1014.2 |
| 20260509222021 | 13 | 298 | 6.4 | 12.9 | 0.00 | 0.71 | 0.71 | 91 | 1014.8 |
| 20260509221024 | 13 | 287 | 6.4 | 12.9 | 0.00 | 0.71 | 0.71 | 91 | 1014.8 |
| 20260509220020 | 12 | 298 | 6.4 | 11.3 | 0.00 | 0.71 | 0.71 | 91 | 1014.5 |
| 20260509215021 | 13 | 300 | 4.8 | 6.4 | 0.00 | 0.71 | 0.71 | 91 | 1014.4 |
| 20260509214025 | 13 | 273 | 6.4 | 11.3 | 0.00 | 0.71 | 0.71 | 91 | 1014.4 |
| 20260509213021 | 13 | 294 | 4.8 | 9.7 | 0.00 | 0.71 | 0.71 | 91 | 1014.3 |
| 20260509212021 | 13 | 289 | 6.4 | 11.3 | 0.00 | 0.71 | 0.71 | 91 | 1014.2 |
| 20260509210025 | 13 | 288 | 4.8 | 9.7 | 0.00 | 0.71 | 0.71 | 91 | 1014.1 |
| 20260509205021 | 13 | 289 | 4.8 | 11.3 | 0.00 | 0.71 | 0.71 | 91 | 1014.0 |
| 20260509204021 | 13 | 262 | 4.8 | 11.3 | 0.00 | 0.71 | 0.71 | 91 | 1014.0 |
| 20260509203026 | 13 | 255 | 6.4 | 12.9 | 0.00 | 0.71 | 0.71 | 91 | 1014.0 |
| 20260509202021 | 13 | 249 | 6.4 | 9.7 | 0.00 | 0.71 | 0.71 | 90 | 1014.0 |
| 20260509201021 | 13 | 248 | 4.8 | 9.7 | 0.00 | 0.71 | 0.71 | 90 | 1013.7 |
| 20260509200022 | 13 | 252 | 4.8 | 8.0 | 0.00 | 0.71 | 0.71 | 89 | 1013.5 |
| 20260509195022 | 13 | 252 | 4.8 | 8.0 | 0.00 | 0.71 | 0.71 | 89 | 1013.2 |
| 20260509194021 | 13 | 262 | 4.8 | 8.0 | 0.00 | 0.71 | 0.71 | 88 | 1013.1 |
| 20260509193021 | 13 | 251 | 3.2 | 8.0 | 0.00 | 0.71 | 0.71 | 87 | 1012.8 |
| 20260509192023 | 13 | 287 | 3.2 | 6.4 | 0.00 | 0.71 | 0.71 | 86 | 1012.7 |
| 20260509191022 | 14 | 289 | 4.8 | 9.7 | 0.00 | 0.71 | 0.71 | 85 | 1012.4 |
| 20260509190023 | 14 | 244 | 3.2 | 6.4 | 0.00 | 0.71 | 0.71 | 83 | 1012.4 |
| 20260509185021 | 15 | 245 | 1.6 | 4.8 | 0.00 | 0.71 | 0.71 | 82 | 1012.3 |
| 20260509183021 | 15 | 0 | 0.0 | 0.0 | 0.00 | 0.71 | 0.71 | 83 | 1011.9 |
| 20260509182021 | 15 | 98 | 0.0 | 3.2 | 0.00 | 0.71 | 0.71 | 83 | 1011.8 |
| 20260509181024 | 15 | 97 | 1.6 | 8.0 | 0.00 | 0.71 | 0.71 | 85 | 1011.7 |
| 20260509180022 | 14 | 87 | 3.2 | 8.0 | 0.00 | 0.71 | 0.71 | 86 | 1011.5 |
| 20260509175022 | 14 | 63 | 3.2 | 11.3 | 0.00 | 0.71 | 0.71 | 86 | 1011.7 |
| 20260509174021 | 14 | 326 | 3.2 | 6.4 | 0.00 | 0.71 | 0.71 | 88 | 1011.6 |
| 20260509173019 | 14 | 327 | 0.0 | 3.2 | 0.00 | 0.71 | 0.71 | 90 | 1011.6 |
| 20260509172022 | 14 | 23 | 1.6 | 6.4 | 0.00 | 0.71 | 0.71 | 90 | 1011.5 |
| 20260509171021 | 13 | 46 | 4.8 | 14.5 | 0.00 | 0.71 | 0.71 | 90 | 1011.3 |
| 20260509165019 | 14 | 76 | 11.3 | 22.5 | 0.05 | 0.71 | 0.71 | 91 | 1011.0 |
| 20260509164020 | 13 | 76 | 11.3 | 19.3 | 0.05 | 0.71 | 0.71 | 90 | 1011.2 |
| 20260509163019 | 13 | 65 | 11.3 | 19.3 | 0.13 | 0.71 | 0.71 | 91 | 1011.8 |
| 20260509162020 | 13 | 58 | 11.3 | 20.9 | 0.23 | 0.71 | 0.71 | 91 | 1012.1 |
| 20260509161020 | 13 | 49 | 11.3 | 22.5 | 0.38 | 0.71 | 0.71 | 91 | 1012.3 |
| 20260509160021 | 13 | 56 | 9.7 | 19.3 | 0.48 | 0.69 | 0.69 | 91 | 1012.6 |
| 20260509155020 | 14 | 72 | 6.4 | 14.5 | 0.48 | 0.66 | 0.66 | 91 | 1012.6 |
| 20260509153020 | 13 | 129 | 6.4 | 14.5 | 0.51 | 0.58 | 0.58 | 88 | 1013.0 |
| 20260509152025 | 14 | 148 | 8.0 | 16.1 | 0.41 | 0.43 | 0.46 | 87 | 1013.3 |
| 20260509151020 | 14 | 155 | 11.3 | 17.7 | 0.28 | 0.33 | 0.33 | 87 | 1013.5 |
| 20260509150022 | 15 | 152 | 4.8 | 16.1 | 0.15 | 0.20 | 0.20 | 86 | 1013.5 |
| 20260509145021 | 15 | 163 | 9.7 | 16.1 | 0.15 | 0.18 | 0.18 | 85 | 1013.5 |
| 20260509144020 | 15 | 178 | 8.0 | 14.5 | 0.08 | 0.13 | 0.13 | 84 | 1013.3 |
| 20260509143019 | 15 | 189 | 8.0 | 12.9 | 0.03 | 0.05 | 0.05 | 82 | 1013.1 |
| 20260509141020 | 15 | 111 | 4.8 | 9.7 | 0.05 | 0.05 | 0.05 | 81 | 1012.0 |
| 20260509140021 | 15 | 77 | 4.8 | 14.5 | 0.05 | 0.05 | 0.05 | 81 | 1011.4 |
| 20260509135020 | 15 | 59 | 4.8 | 16.1 | 0.05 | 0.05 | 0.05 | 81 | 1011.2 |
| 20260509134020 | 15 | 61 | 8.0 | 17.7 | 0.05 | 0.05 | 0.05 | 81 | 1011.2 |
| 20260509133020 | 15 | 67 | 3.2 | 9.7 | 0.05 | 0.05 | 0.05 | 80 | 1011.3 |
| 20260509132020 | 16 | 104 | 3.2 | 6.4 | 0.03 | 0.03 | 0.03 | 78 | 1011.9 |
| 20260509131020 | 16 | 141 | 4.8 | 11.3 | 0.00 | 0.00 | 0.00 | 77 | 1012.4 |
| 20260509130022 | 16 | 125 | 1.6 | 9.7 | 0.00 | 0.00 | 0.00 | 75 | 1012.8 |
| 20260509125021 | 16 | 125 | 0.0 | 1.6 | 0.00 | 0.00 | 0.00 | 74 | 1013.0 |
| 20260509124020 | 16 | 125 | 0.0 | 3.2 | 0.00 | 0.00 | 0.00 | 74 | 1013.1 |
| 20260509123022 | 16 | 126 | 0.0 | 3.2 | 0.00 | 0.00 | 0.00 | 75 | 1013.2 |
| 20260509122020 | 16 | 117 | 3.2 | 6.4 | 0.00 | 0.00 | 0.00 | 75 | 1013.2 |
| 20260509120021 | 16 | 118 | 4.8 | 12.9 | 0.00 | 0.00 | 0.00 | 75 | 1013.0 |
| 20260509114020 | 16 | 105 | 9.7 | 19.3 | 0.00 | 0.00 | 0.00 | 76 | 1013.3 |
| 20260509113020 | 16 | 104 | 9.7 | 19.3 | 0.00 | 0.00 | 0.00 | 77 | 1013.5 |
| 20260509112019 | 16 | 127 | 6.4 | 14.5 | 0.00 | 0.00 | 0.00 | 78 | 1013.7 |
| 20260509111019 | 16 | 138 | 4.8 | 14.5 | 0.00 | 0.00 | 0.00 | 78 | 1014.0 |
| 20260509105022 | 16 | 131 | 11.3 | 17.7 | 0.00 | 0.00 | 0.00 | 78 | 1013.7 |
| 20260509104018 | 16 | 138 | 11.3 | 19.3 | 0.00 | 0.00 | 0.00 | 78 | 1013.7 |
| 20260509102020 | 16 | 156 | 11.3 | 25.7 | 0.00 | 0.00 | 0.00 | 78 | 1014.1 |
| 20260509101020 | 16 | 147 | 9.7 | 19.3 | 0.00 | 0.00 | 0.00 | 76 | 1014.2 |
| 20260509095019 | 16 | 111 | 4.8 | 11.3 | 0.00 | 0.00 | 0.00 | 75 | 1013.9 |
| 20260509094019 | 16 | 127 | 6.4 | 14.5 | 0.00 | 0.00 | 0.00 | 75 | 1014.1 |
| 20260509092020 | 17 | 120 | 8.0 | 17.7 | 0.00 | 0.00 | 0.00 | 74 | 1014.0 |